Fredericksburg, VA

1:51 PM EDT on May 26, 2017 (GMT -0400)
Shannon

Weather History for KEZF - January, 2013

Change the Weather History Date:

Monday, January 28, 2013

  Actual Average (KNYG) Record (KNYG)
Temperature  
Mean Temperature 43 °F -  
Max Temperature 54 °F 40 °F 64 °F (2002)
Min Temperature 32 °F 25 °F 10 °F (2003)
Degree Days  
Heating Degree Days 22    
Moisture  
Dew Point 37 °F    
Average Humidity 78    
Maximum Humidity 99    
Minimum Humidity 62    
Precipitation  
Precipitation 0.07 in - - ()
Sea Level Pressure  
Sea Level Pressure 30.27 in    
Wind  
Wind Speed 7 mph (SSW)    
Max Wind Speed 20 mph    
Max Gust Speed 24 mph    
Visibility 9 miles    
Events Rain    
Averages and records for this station are not official NWS values.
T = Trace of Precipitation, MM = Missing Value Source: NWS Daily Summary

Daily Weather History Graph

Daily Weather History Graph

Search for Another Location

Airport or City:

Trip Planner

Search our weather history database for the weather conditions in past years. The results will help you decide how hot, cold, wet, or windy it might be!

Date:

Astronomy

Jan. 28, 2013 Rise Set
Actual Time 7:17 AM EST 5:28 PM EST
Civil Twilight 6:49 AM EST 5:56 PM EST
Nautical Twilight 6:17 AM EST 6:28 PM EST
Astronomical Twilight 5:46 AM EST 6:59 PM EST
Moon 7:18 PM EST (1/28) 7:44 AM EST (1/28)
Length of Visible Light 11h 06m
Length of Day
10h 10m
Full, 98% of the Moon is Illuminated
Jan 28
Full
Feb 3
Last Quarter
Feb 10
New
Feb 17
First Quarter
Feb 25
Full

Hourly Weather History & Observations

Time (EST) Temp. Windchill Dew Point Humidity Pressure Visibility Wind Dir Wind Speed Gust Speed Precip Events Conditions
12:15 AM 32.0 °F - 26.4 °F 80% 30.51 in 10.0 mi Calm Calm - N/A   Unknown
12:35 AM 32.2 °F - 26.4 °F 79% 30.50 in 10.0 mi Calm Calm - N/A   Unknown
12:55 AM 32.4 °F 26.9 °F 27.3 °F 82% 30.48 in 10.0 mi SSE 5.8 mph - N/A   Mostly Cloudy
1:15 AM 33.1 °F 28.7 °F 26.6 °F 77% 30.47 in 10.0 mi SSE 4.6 mph - N/A   Unknown
1:35 AM 33.1 °F 28.7 °F 27.0 °F 78% 30.47 in 10.0 mi SSE 4.6 mph - N/A   Unknown
1:55 AM 34.0 °F 29.8 °F 26.6 °F 74% 30.47 in 10.0 mi SSE 4.6 mph - N/A   Unknown
2:15 AM 34.2 °F 29.0 °F 26.4 °F 73% 30.47 in 10.0 mi South 5.8 mph - N/A   Unknown
2:35 AM 34.7 °F 30.6 °F 26.2 °F 71% 30.47 in 10.0 mi SSE 4.6 mph - N/A   Mostly Cloudy
2:55 AM 34.7 °F 29.6 °F 26.6 °F 72% 30.46 in 10.0 mi SSE 5.8 mph - N/A   Unknown
3:15 AM 34.9 °F 29.9 °F 26.8 °F 72% 30.45 in 10.0 mi South 5.8 mph - N/A   Mostly Cloudy
3:35 AM 35.1 °F 30.1 °F 27.0 °F 72% 30.44 in 10.0 mi South 5.8 mph - N/A   Unknown
4:15 AM 35.1 °F 30.1 °F 27.9 °F 75% 30.43 in 10.0 mi South 5.8 mph - N/A   Light Drizzle
4:35 AM 35.4 °F 31.5 °F 28.4 °F 76% 30.43 in 10.0 mi South 4.6 mph - N/A Rain Light Rain
4:55 AM 34.9 °F 29.9 °F 28.9 °F 79% 30.42 in 10.0 mi South 5.8 mph - N/A Rain Light Rain
5:15 AM 34.9 °F 30.8 °F 29.3 °F 80% 30.42 in 7.0 mi South 4.6 mph - N/A   Mostly Cloudy
5:35 AM 34.7 °F 28.8 °F 30.6 °F 85% 30.42 in 10.0 mi South 6.9 mph - N/A   Overcast
5:55 AM 34.7 °F 28.8 °F 31.1 °F 87% 30.40 in 10.0 mi South 6.9 mph - 0.01 in   Overcast
6:15 AM 34.7 °F 29.6 °F 31.8 °F 89% 30.43 in 5.0 mi South 5.8 mph - N/A   Overcast
6:35 AM 34.7 °F 30.6 °F 32.0 °F 90% 30.43 in 7.0 mi South 4.6 mph - N/A   Overcast
7:15 AM 34.7 °F 29.6 °F 33.4 °F 95% 30.42 in 5.0 mi South 5.8 mph - N/A   Overcast
7:35 AM 34.9 °F 29.9 °F 34.0 °F 97% 30.42 in 5.0 mi South 5.8 mph - 0.02 in   Mostly Cloudy
7:55 AM 34.9 °F 29.0 °F 34.2 °F 97% 30.40 in 4.0 mi South 6.9 mph - 0.02 in   Mostly Cloudy
8:15 AM 35.1 °F 28.6 °F 34.7 °F 99% 30.40 in 5.0 mi South 8.1 mph - N/A   Mostly Cloudy
8:35 AM 35.2 °F 29.5 °F 34.7 °F 98% 30.39 in 3.0 mi South 6.9 mph - N/A Rain Light Rain
8:55 AM 35.6 °F 29.2 °F 35.1 °F 98% 30.39 in 2.5 mi SSW 8.1 mph - 0.02 in Rain Light Rain
9:15 AM 36.0 °F 29.6 °F 35.6 °F 99% 30.37 in 3.0 mi South 8.1 mph - N/A Rain Light Rain
9:35 AM 36.1 °F 29.9 °F 35.6 °F 98% 30.36 in 5.0 mi South 8.1 mph - N/A   Light Drizzle
9:55 AM 36.5 °F 30.3 °F 36.0 °F 98% 30.36 in 5.0 mi South 8.1 mph - N/A   Light Drizzle
10:35 AM 37.8 °F 30.2 °F 36.7 °F 96% 30.35 in 5.0 mi SSW 11.5 mph 17.3 mph N/A   Overcast
10:55 AM 38.7 °F 31.8 °F 37.4 °F 95% 30.33 in 5.0 mi SSW 10.4 mph - N/A   Overcast
11:15 AM 39.4 °F 32.7 °F 37.6 °F 93% 30.33 in 7.0 mi SW 10.4 mph 17.3 mph N/A   Overcast
11:35 AM 40.1 °F 33.2 °F 38.1 °F 93% 30.31 in 7.0 mi SW 11.5 mph 18.4 mph 0.02 in   Overcast
11:55 AM 40.3 °F 33.4 °F 37.8 °F 91% 30.28 in 7.0 mi SSW 11.5 mph - 0.02 in   Overcast
12:15 PM 41.4 °F 35.2 °F 38.5 °F 89% 30.27 in 7.0 mi SW 10.4 mph - N/A   Overcast
12:35 PM 43.3 °F 37.7 °F 39.2 °F 85% 30.25 in 7.0 mi SSW 10.4 mph - N/A   Unknown
12:55 PM 44.8 °F 39.4 °F 39.6 °F 82% 30.23 in 10.0 mi SW 10.4 mph - N/A   Unknown
1:15 PM 46.4 °F 41.1 °F 39.9 °F 78% 30.21 in 10.0 mi SW 11.5 mph 17.3 mph N/A   Unknown
1:35 PM 47.5 °F - 40.3 °F 76% 30.19 in 10.0 mi SSW 10.4 mph 17.3 mph N/A   Unknown
1:55 PM 49.1 °F - 40.8 °F 73% 30.18 in 10.0 mi SW 10.4 mph 16.1 mph N/A   Unknown
2:15 PM 50.2 °F - 40.6 °F 70% 30.16 in 10.0 mi SW 12.7 mph 16.1 mph N/A   Unknown
2:35 PM 50.0 °F - 40.6 °F 70% 30.16 in 10.0 mi SSW 5.8 mph - N/A   Scattered Clouds
2:55 PM 50.9 °F - 41.0 °F 69% 30.15 in 10.0 mi SW 13.8 mph 18.4 mph N/A   Mostly Cloudy
3:15 PM 51.8 °F - 41.0 °F 67% 30.14 in 10.0 mi SSW 13.8 mph 19.6 mph N/A   Mostly Cloudy
3:35 PM 53.1 °F - 41.2 °F 64% 30.14 in 10.0 mi SW 13.8 mph 19.6 mph N/A   Mostly Cloudy
3:55 PM 54.1 °F - 41.5 °F 62% 30.14 in 10.0 mi SW 19.6 mph 24.2 mph N/A   Scattered Clouds
4:15 PM 53.8 °F - 41.4 °F 63% 30.14 in 10.0 mi SW 11.5 mph 16.1 mph N/A   Mostly Cloudy
4:35 PM 52.3 °F - 41.0 °F 65% 30.14 in 10.0 mi WSW 11.5 mph - N/A   Unknown
4:55 PM 51.8 °F - 41.0 °F 67% 30.14 in 10.0 mi SW 9.2 mph - N/A   Unknown
5:15 PM 52.0 °F - 41.2 °F 67% 30.12 in 10.0 mi SSW 9.2 mph - N/A   Unknown
5:35 PM 52.3 °F - 41.2 °F 66% 30.13 in 10.0 mi SW 5.8 mph - N/A   Unknown
5:55 PM 52.7 °F - 41.2 °F 65% 30.12 in 10.0 mi SW 10.4 mph - N/A   Overcast
6:15 PM 52.7 °F - 41.2 °F 65% 30.12 in 10.0 mi SW 9.2 mph - N/A   Overcast
6:35 PM 53.1 °F - 41.2 °F 64% 30.11 in 10.0 mi SW 9.2 mph - N/A   Overcast
6:55 PM 53.2 °F - 41.4 °F 64% 30.11 in 10.0 mi SW 8.1 mph - N/A   Mostly Cloudy
7:15 PM 53.6 °F - 41.5 °F 64% 30.11 in 10.0 mi SW 6.9 mph - N/A   Overcast
7:35 PM 53.6 °F - 41.9 °F 65% 30.10 in 10.0 mi SW 6.9 mph - N/A   Unknown
7:55 PM 53.8 °F - 42.4 °F 65% 30.09 in 10.0 mi SW 11.5 mph - N/A   Unknown
8:15 PM 54.0 °F - 43.7 °F 68% 30.10 in 10.0 mi SW 10.4 mph 17.3 mph N/A   Scattered Clouds
8:35 PM 53.8 °F - 44.2 °F 70% 30.09 in 10.0 mi SW 10.4 mph 16.1 mph N/A   Unknown
8:55 PM 53.8 °F - 45.0 °F 72% 30.08 in 10.0 mi SW 11.5 mph 17.3 mph N/A   Unknown
9:15 PM 53.6 °F - 45.5 °F 74% 30.08 in 10.0 mi SW 9.2 mph 20.7 mph N/A   Unknown
9:35 PM 53.6 °F - 45.7 °F 75% 30.08 in 10.0 mi SW 9.2 mph 18.4 mph N/A   Scattered Clouds
9:55 PM 53.6 °F - 45.7 °F 75% 30.09 in 10.0 mi SW 6.9 mph 17.3 mph N/A   Scattered Clouds
10:15 PM 52.9 °F - 45.5 °F 76% 30.09 in 10.0 mi SW 6.9 mph - N/A   Unknown
10:35 PM 52.7 °F - 45.5 °F 76% 30.09 in 10.0 mi SW 9.2 mph - N/A   Unknown
10:55 PM 52.2 °F - 45.5 °F 78% 30.09 in 10.0 mi SW 8.1 mph - N/A   Unknown
11:15 PM 51.8 °F - 45.1 °F 78% 30.09 in 10.0 mi SW 9.2 mph - N/A   Unknown
11:35 PM 51.4 °F - 45.0 °F 79% 30.09 in 10.0 mi SW 8.1 mph - N/A   Unknown
11:55 PM 51.1 °F - 44.8 °F 79% 30.09 in 10.0 mi SSW 9.2 mph - N/A   Unknown